Content
SEND FEEDBACK

Daily
Averages
Monthly
Summary
United States of America

BROOKLYN, NEW YORK


Home > North America > United States > New York
Elevation: 2 feet     Latitude: 40 36N     Longitude: 073 59W

WEATHER
 
SELECT A DAY
Number of Records: 185,338;   Date Range: 1/1/95 - 7/26/14
 
SHARE

PRINT THIS DATA

[ ← Previous Day ]
WEATHER ALMANAC - JANUARY 7, 2013
[ Next Day → ]
[ °C ]   °F
Weather ElementAverageHighLow
Temperature40.1 °F46 °F (10:51 am)32 °F (9:51 pm)
Dewpoint23.6 °F27 °F (3:51 am)19 °F (3:51 pm)
Humidity53.1 %73 % (11:51 pm)35 % (1:51 pm)
Barometer30.30 in30.41 in (5:51 pm)30.09 in (1:51 am)
Wind Speed8.1 mph18.4 mph (9:51 am)
Wind Gust26.5 mph (9:51 am)
Weather ElementAverage
Visibility10 mi
Wind DirectionWSW (233.5 °)

Weather ElementTotal
Precipitation---
Heating Degree Days26 (Base 65)
Averaged from 23 records on January 7, 2013
WEATHER CONDITIONS BREAKOUT
WIND DIRECTION BREAKOUT
WEATHER BY HOUR - JANUARY 7, 2013
[ °C ]   °F
Local TimeTemperatureDewpointHumidityBarometerVisibilityWind DirectionWind SpeedGust SpeedPrecipitationEventsConditions
1:51 AM39.9 °F26.1 °F58 %30.09 in10.0 miWest (280°)10.4 mphPartly Cloudy
2:51 AM37.9 °F26.1 °F62 %30.11 in10.0 miWest (280°)9.2 mphPartly Cloudy
3:51 AM37.9 °F27.0 °F65 %30.12 in10.0 miWNW (290°)10.4 mphPartly Cloudy
4:51 AM37.9 °F27.0 °F65 %30.14 in10.0 miWNW (300°)10.4 mphPartly Cloudy
5:51 AM39.0 °F27.0 °F62 %30.17 in10.0 miWNW (300°)12.7 mphPartly Cloudy
6:51 AM37.9 °F27.0 °F65 %30.21 in10.0 miWNW (300°)12.7 mphScattered Clouds
7:51 AM37.9 °F27.0 °F65 %30.24 in10.0 miWNW (300°)4.6 mphPartly Cloudy
8:51 AM42.1 °F27.0 °F55 %30.27 in10.0 miNW (310°)12.7 mph23.0 mphScattered Clouds
9:51 AM44.1 °F27.0 °F51 %30.30 in10.0 miNW (320°)18.4 mph26.5 mphPartly Cloudy
10:51 AM46.0 °F25.0 °F44 %30.31 in10.0 miNNW (330°)11.5 mph20.7 mphPartly Cloudy
11:51 AM46.0 °F23.0 °F40 %30.32 in10.0 miNW (310°)13.8 mph19.6 mphScattered Clouds
12:51 PM46.0 °F21.0 °F37 %30.33 in10.0 miWNW (290°)13.8 mphPartly Cloudy
1:51 PM46.0 °F19.9 °F35 %30.34 in10.0 miNW (320°)11.5 mphPartly Cloudy
2:51 PM46.0 °F19.9 °F35 %30.36 in10.0 miNNW (340°)8.1 mphPartly Cloudy
3:51 PM45.0 °F19.0 °F36 %30.38 in10.0 miNNW (340°)5.8 mphClear
4:51 PM41.0 °F19.0 °F41 %30.40 in10.0 miNorth (350°)5.8 mphClear
5:51 PM37.9 °F19.9 °F48 %30.41 in10.0 miSSE (160°)4.6 mphPartly Cloudy
6:51 PM39.9 °F19.9 °F45 %30.40 in10.0 miCalmClear
7:51 PM37.0 °F19.9 °F50 %30.41 in10.0 miCalmClear
8:51 PM37.0 °F21.9 °F54 %30.41 in10.0 miCalmClear
9:51 PM32.0 °F21.9 °F66 %30.40 in10.0 miCalmPartly Cloudy
10:51 PM33.1 °F24.1 °F70 %30.40 in10.0 miCalmClear
11:51 PM34.0 °F26.1 °F73 %30.40 in10.0 miWSW (250°)9.2 mphClear
Hourly data recorded from KJFK, located miles away from Brooklyn, New York







STORIES FROM OUR PARTNERS